Location: Unspecified
(47.4992°N, 121.7766°W)
Time: 08:58:27
(UTC-08:00)

Cosmos 2058 - Visible Passes

Search period start: 27 January 2021 00:00
Search period end: 06 February 2021 00:00
Orbit: 561 x 584 km, 82.5° (Epoch: 26 January)

Date Brightness Start Highest point End Pass type
(mag) Time Alt. Az. Time Alt. Az. Time Alt. Az.
27 Jan 5.8 05:36:54 10° NNE 05:39:23 15° ENE 05:41:51 10° ESE visible
28 Jan 5.6 05:39:17 10° NNE 05:42:16 19° ENE 05:45:15 10° ESE visible
29 Jan 5.2 05:41:46 10° NNE 05:45:09 24° ENE 05:48:29 10° SE visible
29 Jan 5.6 19:44:49 10° SSW 19:44:54 11° SSW 19:44:54 11° SSW visible
30 Jan 4.8 05:44:20 10° N 05:48:00 30° ENE 05:51:36 10° SE visible
30 Jan 4.7 19:47:39 10° SSW 19:49:25 24° SSW 19:49:25 24° SSW visible
31 Jan 4.4 05:46:58 10° N 05:50:49 38° ENE 05:54:39 10° SE visible
31 Jan 4.4 18:15:17 10° SE 18:17:46 17° E 18:17:46 17° E visible
31 Jan 4.0 19:50:34 10° SSW 19:54:04 43° W 19:54:04 43° W visible
01 Feb 3.8 05:49:38 10° N 05:53:38 49° ENE 05:57:37 10° SSE visible
01 Feb 4.1 18:17:30 10° SE 18:20:42 22° E 18:22:32 17° NE visible
01 Feb 4.4 19:53:34 10° SW 19:57:24 35° WNW 19:58:52 27° NNW visible
02 Feb 3.3 05:52:20 10° N 05:56:26 65° ENE 06:00:29 10° SSE visible
02 Feb 3.8 18:19:51 10° SSE 18:23:23 27° E 18:26:56 10° NNE visible
02 Feb 4.9 19:56:38 10° SW 20:00:14 28° WNW 20:03:46 10° NNW visible
03 Feb 2.9 05:55:05 10° N 05:59:13 84° E 06:03:18 10° S visible
03 Feb 3.5 18:22:18 10° SSE 18:26:05 35° E 18:29:53 10° NNE visible
03 Feb 5.3 19:59:48 10° WSW 20:03:05 22° WNW 20:06:23 10° NNW visible
04 Feb 6.1 04:23:01 10° NE 04:24:30 12° ENE 04:25:59 10° E visible
04 Feb 2.7 05:57:52 10° NNW 06:01:58 75° W 06:06:02 10° S visible
04 Feb 3.1 18:24:50 10° SSE 18:28:48 45° E 18:32:46 10° NNE visible
04 Feb 5.7 20:03:05 10° WSW 20:05:57 18° WNW 20:08:50 10° NNW visible
05 Feb 5.9 04:25:04 10° NNE 04:27:25 15° ENE 04:29:44 10° E visible
05 Feb 2.9 06:00:41 10° NNW 06:04:43 56° W 06:08:42 10° S visible
05 Feb 2.9 18:27:27 10° S 18:31:32 59° E 18:35:37 10° NNE visible
05 Feb 6.0 20:06:33 10° W 20:08:51 14° WNW 20:11:09 10° NNW visible
